Location: Ocean City
(38.3360°N, 75.0850°W)
Time: 12:13:54
(UTC-05:00)

Vanguard 2 Rocket - All Passes

Search period start: 22 November 2019 00:00
Search period end: 02 December 2019 00:00
Orbit: 554 x 3326 km, 32.9° (Epoch: 21 November)

Date Brightness Start Highest point End Pass type
(mag) Time Alt. Az. Time Alt. Az. Time Alt. Az.
22 Nov - 01:04:29 10° WSW 01:08:11 39° S 01:12:51 10° ESE night (unlit)
22 Nov - 03:16:17 10° WSW 03:20:47 42° S 03:27:47 10° ESE visible
22 Nov - 05:28:54 10° WSW 05:34:16 25° SSW 05:42:17 10° SSE visible
23 Nov - 00:05:36 10° SW 00:09:07 31° SSE 00:12:54 10° ESE night (unlit)
23 Nov - 02:17:27 10° WSW 02:21:28 43° S 02:27:11 10° ESE visible
23 Nov - 04:29:42 10° WSW 04:34:29 28° SSW 04:41:45 10° SE visible
23 Nov - 06:45:18 10° SW 06:48:35 12° SSW 06:52:29 10° S daylight
23 Nov - 23:06:38 10° SW 23:10:02 23° SSE 23:13:14 10° ESE night (unlit)
24 Nov - 01:18:33 10° WSW 01:22:18 42° S 01:26:59 10° ESE night (unlit)
24 Nov - 03:30:41 10° WSW 03:34:57 32° SSW 03:41:17 10° SE visible
24 Nov - 05:44:33 10° SW 05:48:32 15° SSW 05:53:39 10° S visible
24 Nov - 22:07:39 10° SSW 22:10:52 18° SSE 22:13:40 10° ESE night (unlit)
25 Nov - 00:19:31 10° WSW 00:23:12 38° S 00:27:09 10° ESE night (unlit)
25 Nov - 02:31:45 10° WSW 02:35:37 35° S 02:40:59 10° SE visible
25 Nov - 04:44:47 10° WSW 04:48:44 18° SSW 04:54:04 10° SSE visible
25 Nov - 21:08:45 10° SSW 21:11:34 14° SSE 21:13:58 10° SE night (unlit)
25 Nov - 23:20:15 10° SW 23:24:07 32° S 23:27:41 10° ESE night (unlit)
26 Nov - 01:32:45 10° WSW 01:36:26 38° S 01:40:58 10° ESE night (unlit)
26 Nov - 03:45:25 10° WSW 03:49:09 22° SSW 03:54:14 10° SSE visible
26 Nov - 20:10:23 10° S 20:12:05 11° SSE 20:13:36 10° SE visible
26 Nov - 22:20:46 10° SW 22:24:59 27° SSE 22:28:25 10° ESE night (unlit)
27 Nov - 00:33:35 10° WSW 00:37:19 39° S 00:41:18 10° ESE night (unlit)
27 Nov - 02:46:14 10° WSW 02:49:46 25° SSW 02:54:25 10° SE visible
27 Nov - 21:21:06 10° SW 21:25:44 23° SSE 21:29:15 10° ESE visible
27 Nov - 23:34:10 10° WSW 23:38:14 39° S 23:41:56 10° ESE night (unlit)
28 Nov - 01:47:05 10° WSW 01:50:34 29° SSW 01:54:44 10° SE night (unlit)
28 Nov - 04:01:07 10° SW 04:03:21 13° SSW 04:05:59 10° S visible
28 Nov - 20:21:21 10° SSW 20:26:18 20° SSE 20:29:59 10° ESE visible
28 Nov - 22:34:25 10° WSW 22:39:07 36° S 22:42:49 10° ESE night (unlit)
29 Nov - 00:47:47 10° WSW 00:51:27 35° S 00:55:17 10° ESE night (unlit)
29 Nov - 03:01:14 10° WSW 03:03:55 16° SSW 03:07:09 10° SSE visible
29 Nov - 19:21:40 10° SSW 19:26:40 17° SSE 19:30:28 10° ESE visible
29 Nov - 21:34:21 10° SW 21:39:54 33° S 21:43:50 10° ESE visible
29 Nov - 23:48:15 10° WSW 23:52:22 39° S 23:56:04 10° ESE night (unlit)
30 Nov - 02:01:41 10° WSW 02:04:40 20° SSW 02:08:05 10° SSE night (unlit)
30 Nov - 18:22:24 10° S 18:26:47 14° SSE 18:30:21 10° SE visible
30 Nov - 20:34:03 10° SW 20:40:31 30° SSE 20:44:51 10° ESE visible
30 Nov - 22:48:21 10° WSW 22:53:15 42° S 22:57:03 10° ESE night (unlit)
01 Dec - 01:02:09 10° WSW 01:05:31 26° SSW 01:09:01 10° SE night (unlit)
01 Dec - 17:24:43 10° SSE 17:26:40 11° SSE 17:28:27 10° SE visible
01 Dec - 19:33:36 10° SW 19:40:55 26° SSE 19:45:47 10° ESE visible
01 Dec - 21:48:03 10° WSW 21:54:03 42° S 21:58:10 10° ESE visible
